;Netzebenenlast
;MS
;FE_MS/N_Netzebenenlast
Datum;Leistungsmittelwert in kW
01.01.2021 00:15:00;97309
01.01.2021 00:30:00;97290
01.01.2021 00:45:00;97090
01.01.2021 01:00:00;97108
01.01.2021 01:15:00;97072
01.01.2021 01:30:00;97179
01.01.2021 01:45:00;97063
01.01.2021 02:00:00;96884
01.01.2021 02:15:00;97080
01.01.2021 02:30:00;96979
01.01.2021 02:45:00;96841
01.01.2021 03:00:00;97124
01.01.2021 03:15:00;96697
01.01.2021 03:30:00;96403
01.01.2021 03:45:00;96555
01.01.2021 04:00:00;96198
01.01.2021 04:15:00;96393
01.01.2021 04:30:00;96646
01.01.2021 04:45:00;96642
01.01.2021 05:00:00;96801
01.01.2021 05:15:00;96960
01.01.2021 05:30:00;97076
01.01.2021 05:45:00;97214
01.01.2021 06:00:00;96631
01.01.2021 06:15:00;96972
01.01.2021 06:30:00;96782
01.01.2021 06:45:00;96870
01.01.2021 07:00:00;97063
01.01.2021 07:15:00;97242
01.01.2021 07:30:00;97246
01.01.2021 07:45:00;96899
01.01.2021 08:00:00;97234
01.01.2021 08:15:00;97338
01.01.2021 08:30:00;96920
01.01.2021 08:45:00;96679
01.01.2021 09:00:00;96618
01.01.2021 09:15:00;96658
01.01.2021 09:30:00;96409
01.01.2021 09:45:00;96464
01.01.2021 10:00:00;96964
01.01.2021 10:15:00;96953
01.01.2021 10:30:00;96712
01.01.2021 10:45:00;96780
01.01.2021 11:00:00;96654
01.01.2021 11:15:00;96436
01.01.2021 11:30:00;96721
01.01.2021 11:45:00;97056
01.01.2021 12:00:00;97062
01.01.2021 12:15:00;96790
01.01.2021 12:30:00;96710
01.01.2021 12:45:00;96906
01.01.2021 13:00:00;96868
01.01.2021 13:15:00;97106
01.01.2021 13:30:00;97145
01.01.2021 13:45:00;96918
01.01.2021 14:00:00;96887
01.01.2021 14:15:00;96431
01.01.2021 14:30:00;96454
01.01.2021 14:45:00;96565
01.01.2021 15:00:00;96514
01.01.2021 15:15:00;96772
01.01.2021 15:30:00;97055
01.01.2021 15:45:00;97186
01.01.2021 16:00:00;97638
01.01.2021 16:15:00;98088
01.01.2021 16:30:00;98106
01.01.2021 16:45:00;98377
01.01.2021 17:00:00;98388
01.01.2021 17:15:00;98446
01.01.2021 17:30:00;98473
01.01.2021 17:45:00;97998
01.01.2021 18:00:00;98311
01.01.2021 18:15:00;98695
01.01.2021 18:30:00;98361
01.01.2021 18:45:00;98909
01.01.2021 19:00:00;98645
01.01.2021 19:15:00;98807
01.01.2021 19:30:00;98884
01.01.2021 19:45:00;99324
01.01.2021 20:00:00;99898
01.01.2021 20:15:00;99516
01.01.2021 20:30:00;99410
01.01.2021 20:45:00;99413
01.01.2021 21:00:00;99757
01.01.2021 21:15:00;99554
01.01.2021 21:30:00;99519
01.01.2021 21:45:00;99117
01.01.2021 22:00:00;98973
01.01.2021 22:15:00;98842
01.01.2021 22:30:00;99282
01.01.2021 22:45:00;100422
01.01.2021 23:00:00;100133
01.01.2021 23:15:00;100106
01.01.2021 23:30:00;100691
01.01.2021 23:45:00;100160
02.01.2021 00:00:00;100463
02.01.2021 00:15:00;100957
02.01.2021 00:30:00;100900
02.01.2021 00:45:00;100891
02.01.2021 01:00:00;100846
02.01.2021 01:15:00;101165
02.01.2021 01:30:00;101326
02.01.2021 01:45:00;101275
02.01.2021 02:00:00;101174
02.01.2021 02:15:00;99226
02.01.2021 02:30:00;99523
02.01.2021 02:45:00;100047
02.01.2021 03:00:00;100632
02.01.2021 03:15:00;100521
02.01.2021 03:30:00;100512
02.01.2021 03:45:00;100679
02.01.2021 04:00:00;101061
02.01.2021 04:15:00;101048
02.01.2021 04:30:00;101250
02.01.2021 04:45:00;101014
02.01.2021 05:00:00;100995
02.01.2021 05:15:00;100848
02.01.2021 05:30:00;100860
02.01.2021 05:45:00;100542
02.01.2021 06:00:00;99643
02.01.2021 06:15:00;99760
02.01.2021 06:30:00;101072
02.01.2021 06:45:00;101656
02.01.2021 07:00:00;101806
02.01.2021 07:15:00;101991
02.01.2021 07:30:00;101442
02.01.2021 07:45:00;101554
02.01.2021 08:00:00;101273
02.01.2021 08:15:00;101544
02.01.2021 08:30:00;101459
02.01.2021 08:45:00;100504
02.01.2021 09:00:00;100556
02.01.2021 09:15:00;100843
02.01.2021 09:30:00;100127
02.01.2021 09:45:00;100235
02.01.2021 10:00:00;100374
02.01.2021 10:15:00;100326
02.01.2021 10:30:00;100374
02.01.2021 10:45:00;100063
02.01.2021 11:00:00;99132
02.01.2021 11:15:00;99157
02.01.2021 11:30:00;98894
02.01.2021 11:45:00;100163
02.01.2021 12:00:00;99895
02.01.2021 12:15:00;100217
02.01.2021 12:30:00;100118
02.01.2021 12:45:00;100011
02.01.2021 13:00:00;99833
02.01.2021 13:15:00;99538
02.01.2021 13:30:00;99675
02.01.2021 13:45:00;99398
02.01.2021 14:00:00;99103
02.01.2021 14:15:00;98992
02.01.2021 14:30:00;99027
02.01.2021 14:45:00;99308
02.01.2021 15:00:00;98624
02.01.2021 15:15:00;98921
02.01.2021 15:30:00;99026
02.01.2021 15:45:00;97754
02.01.2021 16:00:00;98015
02.01.2021 16:15:00;98113
02.01.2021 16:30:00;98324
02.01.2021 16:45:00;98368
02.01.2021 17:00:00;98348
02.01.2021 17:15:00;98663
02.01.2021 17:30:00;98490
02.01.2021 17:45:00;98462
02.01.2021 18:00:00;98531
02.01.2021 18:15:00;99574
02.01.2021 18:30:00;99850
02.01.2021 18:45:00;99690
02.01.2021 19:00:00;99778
02.01.2021 19:15:00;99751
02.01.2021 19:30:00;100097
02.01.2021 19:45:00;100201
02.01.2021 20:00:00;99984
02.01.2021 20:15:00;99566
02.01.2021 20:30:00;100129
02.01.2021 20:45:00;100187
02.01.2021 21:00:00;100328
02.01.2021 21:15:00;100059
02.01.2021 21:30:00;99960
02.01.2021 21:45:00;100562
02.01.2021 22:00:00;100560
02.01.2021 22:15:00;100524
02.01.2021 22:30:00;100175
02.01.2021 22:45:00;100312
02.01.2021 23:00:00;99710
02.01.2021 23:15:00;98828
02.01.2021 23:30:00;99083
02.01.2021 23:45:00;98598
03.01.2021 00:00:00;98970
03.01.2021 00:15:00;99584
03.01.2021 00:30:00;99325
03.01.2021 00:45:00;99341
03.01.2021 01:00:00;99768
03.01.2021 01:15:00;99649
03.01.2021 01:30:00;100153
03.01.2021 01:45:00;100146
03.01.2021 02:00:00;99805
03.01.2021 02:15:00;99712
03.01.2021 02:30:00;99797
03.01.2021 02:45:00;100100
03.01.2021 03:00:00;100129
03.01.2021 03:15:00;100434
03.01.2021 03:30:00;99362
03.01.2021 03:45:00;99395
03.01.2021 04:00:00;99840
03.01.2021 04:15:00;98964
03.01.2021 04:30:00;98886
03.01.2021 04:45:00;98516
03.01.2021 05:00:00;98525
03.01.2021 05:15:00;98419
03.01.2021 05:30:00;98250
03.01.2021 05:45:00;98287
03.01.2021 06:00:00;98655
03.01.2021 06:15:00;98895
03.01.2021 06:30:00;100440
03.01.2021 06:45:00;100330
03.01.2021 07:00:00;100286
03.01.2021 07:15:00;100318
03.01.2021 07:30:00;100825
03.01.2021 07:45:00;100386
03.01.2021 08:00:00;100299
03.01.2021 08:15:00;101016
03.01.2021 08:30:00;100722
03.01.2021 08:45:00;99984
03.01.2021 09:00:00;98713
03.01.2021 09:15:00;98486
03.01.2021 09:30:00;97828
03.01.2021 09:45:00;97950
03.01.2021 10:00:00;97586
03.01.2021 10:15:00;97465
03.01.2021 10:30:00;97377
03.01.2021 10:45:00;97635
03.01.2021 11:00:00;97074
03.01.2021 11:15:00;96433
03.01.2021 11:30:00;96251
03.01.2021 11:45:00;96864
03.01.2021 12:00:00;96973
03.01.2021 12:15:00;97290
03.01.2021 12:30:00;97429
03.01.2021 12:45:00;97586
03.01.2021 13:00:00;97634
03.01.2021 13:15:00;97383
03.01.2021 13:30:00;97175
03.01.2021 13:45:00;97201
03.01.2021 14:00:00;97306
03.01.2021 14:15:00;97245
03.01.2021 14:30:00;97128
03.01.2021 14:45:00;97261
03.01.2021 15:00:00;97446
03.01.2021 15:15:00;97062
03.01.2021 15:30:00;97126
03.01.2021 15:45:00;97120
03.01.2021 16:00:00;97075
03.01.2021 16:15:00;97430
03.01.2021 16:30:00;98035
03.01.2021 16:45:00;98259
03.01.2021 17:00:00;98404
03.01.2021 17:15:00;98412
03.01.2021 17:30:00;98325
03.01.2021 17:45:00;98125
03.01.2021 18:00:00;98236
03.01.2021 18:15:00;98250
03.01.2021 18:30:00;98559
03.01.2021 18:45:00;98455
03.01.2021 19:00:00;99062
03.01.2021 19:15:00;98858
03.01.2021 19:30:00;99094
03.01.2021 19:45:00;98930
03.01.2021 20:00:00;99118
03.01.2021 20:15:00;98716
03.01.2021 20:30:00;98769
03.01.2021 20:45:00;98733
03.01.2021 21:00:00;98526
03.01.2021 21:15:00;98625
03.01.2021 21:30:00;98449
03.01.2021 21:45:00;98280
03.01.2021 22:00:00;97996
03.01.2021 22:15:00;98045
03.01.2021 22:30:00;98240
03.01.2021 22:45:00;98154
03.01.2021 23:00:00;98168
03.01.2021 23:15:00;97927
03.01.2021 23:30:00;98184
03.01.2021 23:45:00;98205
04.01.2021 00:00:00;97704
04.01.2021 00:15:00;97699
04.01.2021 00:30:00;97609
04.01.2021 00:45:00;97571
04.01.2021 01:00:00;97710
04.01.2021 01:15:00;97704
04.01.2021 01:30:00;97671
04.01.2021 01:45:00;97845
04.01.2021 02:00:00;98012
04.01.2021 02:15:00;97833
04.01.2021 02:30:00;98175
04.01.2021 02:45:00;98098
04.01.2021 03:00:00;98202
04.01.2021 03:15:00;97989
04.01.2021 03:30:00;97908
04.01.2021 03:45:00;98253
04.01.2021 04:00:00;98352
04.01.2021 04:15:00;98132
04.01.2021 04:30:00;98301
04.01.2021 04:45:00;98484
04.01.2021 05:00:00;98410
04.01.2021 05:15:00;99275
04.01.2021 05:30:00;97822
04.01.2021 05:45:00;97941
04.01.2021 06:00:00;97816
04.01.2021 06:15:00;98945
04.01.2021 06:30:00;99421
04.01.2021 06:45:00;100282
04.01.2021 07:00:00;101601
04.01.2021 07:15:00;102212
04.01.2021 07:30:00;102400
04.01.2021 07:45:00;102458
04.01.2021 08:00:00;102961
04.01.2021 08:15:00;102970
04.01.2021 08:30:00;103087
04.01.2021 08:45:00;102925
04.01.2021 09:00:00;102863
04.01.2021 09:15:00;102255
04.01.2021 09:30:00;101876
04.01.2021 09:45:00;102211
04.01.2021 10:00:00;101842
04.01.2021 10:15:00;100427
04.01.2021 10:30:00;101457
04.01.2021 10:45:00;102740
04.01.2021 11:00:00;102788
04.01.2021 11:15:00;103137
04.01.2021 11:30:00;103032
04.01.2021 11:45:00;103190
04.01.2021 12:00:00;102966
04.01.2021 12:15:00;102829
04.01.2021 12:30:00;102757
04.01.2021 12:45:00;102744
04.01.2021 13:00:00;103084
04.01.2021 13:15:00;102798
04.01.2021 13:30:00;102790
04.01.2021 13:45:00;101812
04.01.2021 14:00:00;101914
04.01.2021 14:15:00;102752
04.01.2021 14:30:00;103422
04.01.2021 14:45:00;103822
04.01.2021 15:00:00;103707
04.01.2021 15:15:00;103837
04.01.2021 15:30:00;104117
04.01.2021 15:45:00;104309
04.01.2021 16:00:00;104435
04.01.2021 16:15:00;104326
04.01.2021 16:30:00;104459
04.01.2021 16:45:00;104227
04.01.2021 17:00:00;104258
04.01.2021 17:15:00;104315
04.01.2021 17:30:00;104680
04.01.2021 17:45:00;104225
04.01.2021 18:00:00;104080
04.01.2021 18:15:00;102167
04.01.2021 18:30:00;102173
04.01.2021 18:45:00;103513
04.01.2021 19:00:00;103789
04.01.2021 19:15:00;103709
04.01.2021 19:30:00;103974
04.01.2021 19:45:00;103665
04.01.2021 20:00:00;103183
04.01.2021 20:15:00;103289
04.01.2021 20:30:00;103124
04.01.2021 20:45:00;103046
04.01.2021 21:00:00;103313
04.01.2021 21:15:00;103016
04.01.2021 21:30:00;102786
04.01.2021 21:45:00;102525
04.01.2021 22:00:00;101166
04.01.2021 22:15:00;101270
04.01.2021 22:30:00;102469
04.01.2021 22:45:00;102379
04.01.2021 23:00:00;102585
04.01.2021 23:15:00;102884
04.01.2021 23:30:00;103570
04.01.2021 23:45:00;103611
05.01.2021 00:00:00;102801
05.01.2021 00:15:00;102757
05.01.2021 00:30:00;102460
05.01.2021 00:45:00;102875
05.01.2021 01:00:00;102561
05.01.2021 01:15:00;102321
05.01.2021 01:30:00;102683
05.01.2021 01:45:00;102080
05.01.2021 02:00:00;101063
05.01.2021 02:15:00;100807
05.01.2021 02:30:00;100274
05.01.2021 02:45:00;101132
05.01.2021 03:00:00;101943
05.01.2021 03:15:00;102152
05.01.2021 03:30:00;102185
05.01.2021 03:45:00;102585
05.01.2021 04:00:00;101965
05.01.2021 04:15:00;101628
05.01.2021 04:30:00;102555
05.01.2021 04:45:00;102330
05.01.2021 05:00:00;101929
05.01.2021 05:15:00;102389
05.01.2021 05:30:00;102708
05.01.2021 05:45:00;103107
05.01.2021 06:00:00;102533
05.01.2021 06:15:00;102674
05.01.2021 06:30:00;103656
05.01.2021 06:45:00;104290
05.01.2021 07:00:00;104872
05.01.2021 07:15:00;105493
05.01.2021 07:30:00;105624
05.01.2021 07:45:00;105885
05.01.2021 08:00:00;105735
05.01.2021 08:15:00;106233
05.01.2021 08:30:00;106218
05.01.2021 08:45:00;106242
05.01.2021 09:00:00;106640
05.01.2021 09:15:00;106591
05.01.2021 09:30:00;106101
05.01.2021 09:45:00;105317
05.01.2021 10:00:00;106130
05.01.2021 10:15:00;104436
05.01.2021 10:30:00;104306
05.01.2021 10:45:00;105525
05.01.2021 11:00:00;105767
05.01.2021 11:15:00;105908
05.01.2021 11:30:00;105695
05.01.2021 11:45:00;105766
05.01.2021 12:00:00;105532
05.01.2021 12:15:00;104955
05.01.2021 12:30:00;105974
05.01.2021 12:45:00;105481
05.01.2021 13:00:00;104773
05.01.2021 13:15:00;104852
05.01.2021 13:30:00;105185
05.01.2021 13:45:00;104055
05.01.2021 14:00:00;103963
05.01.2021 14:15:00;104290
05.01.2021 14:30:00;104844
05.01.2021 14:45:00;104871
05.01.2021 15:00:00;104944
05.01.2021 15:15:00;104567
05.01.2021 15:30:00;104048
05.01.2021 15:45:00;103780
05.01.2021 16:00:00;103949
05.01.2021 16:15:00;103994
05.01.2021 16:30:00;104125
05.01.2021 16:45:00;103589
05.01.2021 17:00:00;103330
05.01.2021 17:15:00;103352
05.01.2021 17:30:00;103253
05.01.2021 17:45:00;102652
05.01.2021 18:00:00;102624
05.01.2021 18:15:00;101368
05.01.2021 18:30:00;101047
05.01.2021 18:45:00;102229
05.01.2021 19:00:00;102752
05.01.2021 19:15:00;102747
05.01.2021 19:30:00;102841
05.01.2021 19:45:00;103192
05.01.2021 20:00:00;103373
05.01.2021 20:15:00;102774
05.01.2021 20:30:00;102656
05.01.2021 20:45:00;102217
05.01.2021 21:00:00;101924
05.01.2021 21:15:00;102444
05.01.2021 21:30:00;102336
05.01.2021 21:45:00;101896
05.01.2021 22:00:00;100695
05.01.2021 22:15:00;101065
05.01.2021 22:30:00;102058
05.01.2021 22:45:00;102012
05.01.2021 23:00:00;102039
05.01.2021 23:15:00;102238
05.01.2021 23:30:00;102529
05.01.2021 23:45:00;102190
06.01.2021 00:00:00;102606
06.01.2021 00:15:00;102579
06.01.2021 00:30:00;102678
06.01.2021 00:45:00;102692
06.01.2021 01:00:00;103126
06.01.2021 01:15:00;102878
06.01.2021 01:30:00;103312
06.01.2021 01:45:00;102666
06.01.2021 02:00:00;101781
06.01.2021 02:15:00;100510
06.01.2021 02:30:00;100993
06.01.2021 02:45:00;102233
06.01.2021 03:00:00;103020
06.01.2021 03:15:00;103396
06.01.2021 03:30:00;103088
06.01.2021 03:45:00;103048
06.01.2021 04:00:00;102586
06.01.2021 04:15:00;102538
06.01.2021 04:30:00;102754
06.01.2021 04:45:00;102487
06.01.2021 05:00:00;101854
06.01.2021 05:15:00;103429
06.01.2021 05:30:00;103389
06.01.2021 05:45:00;103282
06.01.2021 06:00:00;101944
06.01.2021 06:15:00;101998
06.01.2021 06:30:00;103804
06.01.2021 06:45:00;104838
06.01.2021 07:00:00;105359
06.01.2021 07:15:00;106381
06.01.2021 07:30:00;106568
06.01.2021 07:45:00;106747
06.01.2021 08:00:00;107125
06.01.2021 08:15:00;106689
06.01.2021 08:30:00;106934
06.01.2021 08:45:00;107180
06.01.2021 09:00:00;106899
06.01.2021 09:15:00;106590
06.01.2021 09:30:00;106253
06.01.2021 09:45:00;106005
06.01.2021 10:00:00;105873
06.01.2021 10:15:00;105885
06.01.2021 10:30:00;106157
06.01.2021 10:45:00;104405
06.01.2021 11:00:00;104059
06.01.2021 11:15:00;105526
06.01.2021 11:30:00;106253
06.01.2021 11:45:00;106400
06.01.2021 12:00:00;106234
06.01.2021 12:15:00;105830
06.01.2021 12:30:00;105360
06.01.2021 12:45:00;105795
06.01.2021 13:00:00;105509
06.01.2021 13:15:00;105068
06.01.2021 13:30:00;104859
06.01.2021 13:45:00;103588
06.01.2021 14:00:00;103292
06.01.2021 14:15:00;104384
06.01.2021 14:30:00;104993
06.01.2021 14:45:00;104704
06.01.2021 15:00:00;104060
06.01.2021 15:15:00;104153
06.01.2021 15:30:00;104182
06.01.2021 15:45:00;103768
06.01.2021 16:00:00;103624
06.01.2021 16:15:00;103672
06.01.2021 16:30:00;103879
06.01.2021 16:45:00;103692
06.01.2021 17:00:00;104071
06.01.2021 17:15:00;103295
06.01.2021 17:30:00;102558
06.01.2021 17:45:00;102101
06.01.2021 18:00:00;102004
06.01.2021 18:15:00;103514
06.01.2021 18:30:00;103082
06.01.2021 18:45:00;103394
06.01.2021 19:00:00;103169
06.01.2021 19:15:00;102970
06.01.2021 19:30:00;102750
06.01.2021 19:45:00;103119
06.01.2021 20:00:00;103037
06.01.2021 20:15:00;102858
06.01.2021 20:30:00;103241
06.01.2021 20:45:00;103693
06.01.2021 21:00:00;103699
06.01.2021 21:15:00;103403
06.01.2021 21:30:00;103486
06.01.2021 21:45:00;103364
06.01.2021 22:00:00;102281
06.01.2021 22:15:00;101939
06.01.2021 22:30:00;103122
06.01.2021 22:45:00;103508
06.01.2021 23:00:00;103055
06.01.2021 23:15:00;102887
06.01.2021 23:30:00;103080
06.01.2021 23:45:00;103579
07.01.2021 00:00:00;103779
07.01.2021 00:15:00;103890
07.01.2021 00:30:00;104316
07.01.2021 00:45:00;103687
07.01.2021 01:00:00;103623
07.01.2021 01:15:00;103261
07.01.2021 01:30:00;103079
07.01.2021 01:45:00;103115
07.01.2021 02:00:00;103063
07.01.2021 02:15:00;102152
07.01.2021 02:30:00;101712
07.01.2021 02:45:00;102581
07.01.2021 03:00:00;103589
07.01.2021 03:15:00;103274
07.01.2021 03:30:00;102754
07.01.2021 03:45:00;102804
07.01.2021 04:00:00;102750
07.01.2021 04:15:00;101894
07.01.2021 04:30:00;102408
07.01.2021 04:45:00;103338
07.01.2021 05:00:00;102480
07.01.2021 05:15:00;102732
07.01.2021 05:30:00;102796
07.01.2021 05:45:00;102060
07.01.2021 06:00:00;101673
07.01.2021 06:15:00;102040
07.01.2021 06:30:00;103542
07.01.2021 06:45:00;104813
07.01.2021 07:00:00;105031
07.01.2021 07:15:00;105265
07.01.2021 07:30:00;105643
07.01.2021 07:45:00;105686
07.01.2021 08:00:00;106147
07.01.2021 08:15:00;106698
07.01.2021 08:30:00;106521
07.01.2021 08:45:00;106838
07.01.2021 09:00:00;106224
07.01.2021 09:15:00;105414
07.01.2021 09:30:00;105626
07.01.2021 09:45:00;105720
07.01.2021 10:00:00;105061
07.01.2021 10:15:00;103365
07.01.2021 10:30:00;103371
07.01.2021 10:45:00;104095
07.01.2021 11:00:00;104599
07.01.2021 11:15:00;104837
07.01.2021 11:30:00;105028
07.01.2021 11:45:00;104931
07.01.2021 12:00:00;105097
07.01.2021 12:15:00;104838
07.01.2021 12:30:00;105065
07.01.2021 12:45:00;105197
07.01.2021 13:00:00;105388
07.01.2021 13:15:00;104810
07.01.2021 13:30:00;104595
07.01.2021 13:45:00;103842
07.01.2021 14:00:00;103874
07.01.2021 14:15:00;103905
07.01.2021 14:30:00;105206
07.01.2021 14:45:00;105758
07.01.2021 15:00:00;105520
07.01.2021 15:15:00;104790
07.01.2021 15:30:00;104669
07.01.2021 15:45:00;104382
07.01.2021 16:00:00;104515
07.01.2021 16:15:00;104534
07.01.2021 16:30:00;104031
07.01.2021 16:45:00;104091
07.01.2021 17:00:00;103691
07.01.2021 17:15:00;103555
07.01.2021 17:30:00;103616
07.01.2021 17:45:00;102990
07.01.2021 18:00:00;102890
07.01.2021 18:15:00;101474
07.01.2021 18:30:00;101385
07.01.2021 18:45:00;101613
07.01.2021 19:00:00;102737
07.01.2021 19:15:00;103250
07.01.2021 19:30:00;103940
07.01.2021 19:45:00;103712
07.01.2021 20:00:00;103956
07.01.2021 20:15:00;103858
07.01.2021 20:30:00;103719
07.01.2021 20:45:00;103156
07.01.2021 21:00:00;103361
07.01.2021 21:15:00;102839
07.01.2021 21:30:00;102822
07.01.2021 21:45:00;102337
07.01.2021 22:00:00;101193
07.01.2021 22:15:00;101185
07.01.2021 22:30:00;101187
07.01.2021 22:45:00;101355
07.01.2021 23:00:00;102821
07.01.2021 23:15:00;103159
07.01.2021 23:30:00;103952
07.01.2021 23:45:00;103713
08.01.2021 00:00:00;104135
08.01.2021 00:15:00;103873
08.01.2021 00:30:00;104100
08.01.2021 00:45:00;103789
08.01.2021 01:00:00;103622
08.01.2021 01:15:00;103553
08.01.2021 01:30:00;103380
08.01.2021 01:45:00;102772
08.01.2021 02:00:00;101839
08.01.2021 02:15:00;101443
08.01.2021 02:30:00;101650
08.01.2021 02:45:00;102887
08.01.2021 03:00:00;102513
08.01.2021 03:15:00;102345
08.01.2021 03:30:00;102096
08.01.2021 03:45:00;101841
08.01.2021 04:00:00;101821
08.01.2021 04:15:00;101736
08.01.2021 04:30:00;102394
08.01.2021 04:45:00;103207
08.01.2021 05:00:00;103258
08.01.2021 05:15:00;103135
08.01.2021 05:30:00;103144
08.01.2021 05:45:00;103456
08.01.2021 06:00:00;102525
08.01.2021 06:15:00;102859
08.01.2021 06:30:00;103565
08.01.2021 06:45:00;105350
08.01.2021 07:00:00;106272
08.01.2021 07:15:00;106596
08.01.2021 07:30:00;106856
08.01.2021 07:45:00;107710
08.01.2021 08:00:00;107703
08.01.2021 08:15:00;108332
08.01.2021 08:30:00;108934
08.01.2021 08:45:00;108339
08.01.2021 09:00:00;108000
08.01.2021 09:15:00;107828
08.01.2021 09:30:00;108205
08.01.2021 09:45:00;108300
08.01.2021 10:00:00;107328
08.01.2021 10:15:00;105800
08.01.2021 10:30:00;106115
08.01.2021 10:45:00;107259
08.01.2021 11:00:00;107841
08.01.2021 11:15:00;106648
08.01.2021 11:30:00;106312
08.01.2021 11:45:00;106031
08.01.2021 12:00:00;106075
08.01.2021 12:15:00;106537
08.01.2021 12:30:00;106498
08.01.2021 12:45:00;105819
08.01.2021 13:00:00;105929
08.01.2021 13:15:00;106022
08.01.2021 13:30:00;105371
08.01.2021 13:45:00;104811
08.01.2021 14:00:00;104063
08.01.2021 14:15:00;103784
08.01.2021 14:30:00;104007
08.01.2021 14:45:00;103968
08.01.2021 15:00:00;104369
08.01.2021 15:15:00;104203
08.01.2021 15:30:00;104047
08.01.2021 15:45:00;103712
08.01.2021 16:00:00;103548
08.01.2021 16:15:00;103575
08.01.2021 16:30:00;103398
08.01.2021 16:45:00;103123
08.01.2021 17:00:00;103442
08.01.2021 17:15:00;103127
08.01.2021 17:30:00;102628
08.01.2021 17:45:00;102448
08.01.2021 18:00:00;102235
08.01.2021 18:15:00;100680
08.01.2021 18:30:00;100942
08.01.2021 18:45:00;102117
08.01.2021 19:00:00;102562
08.01.2021 19:15:00;102298
08.01.2021 19:30:00;102660
08.01.2021 19:45:00;102737
08.01.2021 20:00:00;102953
08.01.2021 20:15:00;103026
08.01.2021 20:30:00;103230
08.01.2021 20:45:00;102862
08.01.2021 21:00:00;102531
08.01.2021 21:15:00;102424
08.01.2021 21:30:00;102411
08.01.2021 21:45:00;102091
08.01.2021 22:00:00;100803
08.01.2021 22:15:00;99998
08.01.2021 22:30:00;100138
08.01.2021 22:45:00;101366
08.01.2021 23:00:00;101752
08.01.2021 23:15:00;100936
08.01.2021 23:30:00;102803
08.01.2021 23:45:00;102364
09.01.2021 00:00:00;102431
09.01.2021 00:15:00;102207
09.01.2021 00:30:00;102093
09.01.2021 00:45:00;102733
09.01.2021 01:00:00;102326
09.01.2021 01:15:00;101630
09.01.2021 01:30:00;102073
09.01.2021 01:45:00;102072
09.01.2021 02:00:00;100090
09.01.2021 02:15:00;99449
09.01.2021 02:30:00;99560
09.01.2021 02:45:00;100624
09.01.2021 03:00:00;100446
09.01.2021 03:15:00;100519
09.01.2021 03:30:00;100435
09.01.2021 03:45:00;100338
09.01.2021 04:00:00;100321
09.01.2021 04:15:00;100472
09.01.2021 04:30:00;100843
09.01.2021 04:45:00;100916
09.01.2021 05:00:00;100727
09.01.2021 05:15:00;101003
09.01.2021 05:30:00;101032
09.01.2021 05:45:00;100525
09.01.2021 06:00:00;101028
09.01.2021 06:15:00;101146
09.01.2021 06:30:00;100494
09.01.2021 06:45:00;99540
09.01.2021 07:00:00;99513
09.01.2021 07:15:00;99361
09.01.2021 07:30:00;99862
09.01.2021 07:45:00;100597
09.01.2021 08:00:00;100805
09.01.2021 08:15:00;100938
09.01.2021 08:30:00;101233
09.01.2021 08:45:00;101765
09.01.2021 09:00:00;101717
09.01.2021 09:15:00;101754
09.01.2021 09:30:00;101799
09.01.2021 09:45:00;102166
09.01.2021 10:00:00;101819
09.01.2021 10:15:00;101990
09.01.2021 10:30:00;101966
09.01.2021 10:45:00;101635
09.01.2021 11:00:00;101574
09.01.2021 11:15:00;101056
09.01.2021 11:30:00;100420
09.01.2021 11:45:00;100058
09.01.2021 12:00:00;101521
09.01.2021 12:15:00;101369
09.01.2021 12:30:00;101175
09.01.2021 12:45:00;100995
09.01.2021 13:00:00;101013
09.01.2021 13:15:00;100497
09.01.2021 13:30:00;101216
09.01.2021 13:45:00;101070
09.01.2021 14:00:00;101276
09.01.2021 14:15:00;102016
09.01.2021 14:30:00;101519
09.01.2021 14:45:00;101559
09.01.2021 15:00:00;101494
09.01.2021 15:15:00;101313
09.01.2021 15:30:00;101565
09.01.2021 15:45:00;101463
09.01.2021 16:00:00;101475
09.01.2021 16:15:00;101324
09.01.2021 16:30:00;101223
09.01.2021 16:45:00;101328
09.01.2021 17:00:00;101200
09.01.2021 17:15:00;101350
09.01.2021 17:30:00;101387
09.01.2021 17:45:00;100242
09.01.2021 18:00:00;99717
09.01.2021 18:15:00;100993
09.01.2021 18:30:00;101324
09.01.2021 18:45:00;100501
09.01.2021 19:00:00;102014
09.01.2021 19:15:00;101553
09.01.2021 19:30:00;101610
09.01.2021 19:45:00;101777
09.01.2021 20:00:00;101162
09.01.2021 20:15:00;101255
09.01.2021 20:30:00;101540
09.01.2021 20:45:00;101616
09.01.2021 21:00:00;101059
09.01.2021 21:15:00;101588
09.01.2021 21:30:00;101697
09.01.2021 21:45:00;101512
09.01.2021 22:00:00;101905
09.01.2021 22:15:00;101312
09.01.2021 22:30:00;101660
09.01.2021 22:45:00;101668
09.01.2021 23:00:00;101128
09.01.2021 23:15:00;101072
09.01.2021 23:30:00;100645
09.01.2021 23:45:00;101104